DAL334 KDTW-KATL

Flight info

Callsign DAL334
Flight time N/A
Altitude 38000
Route BARII3 SINKR IIU Q139 HITMN/N0449F370 NEWBB IHAVE MTHEW CHPPR1
Aircraft A320/M-SDE3FGHIRWY/LB1

Departure

Time 2026-05-08 00:51
Airport Detroit Metropolitan Wayne County Airport (KDTW)

Arrival

Time N/A
Airport Hartsfield Jackson Atlanta International Airport (KATL)
Time Latitude Longitude Altitude Speed Heading
2026-05-08 00:19 42.21404 -83.35322 646 ft 0 kts 297°
2026-05-08 00:40 42.21403 -83.35320 646 ft 2 kts 297°
2026-05-08 00:40 42.21393 -83.35293 646 ft 2 kts 297°
2026-05-08 00:40 42.21380 -83.35272 648 ft 4 kts 355°
2026-05-08 00:40 42.21358 -83.35280 647 ft 4 kts 25°
2026-05-08 00:41 42.21350 -83.35285 648 ft 1 kts 25°
2026-05-08 00:44 42.21371 -83.35259 649 ft 6 kts 48°
2026-05-08 00:44 42.21395 -83.35221 646 ft 5 kts 48°
2026-05-08 00:44 42.21419 -83.35190 646 ft 6 kts 36°
2026-05-08 00:45 42.21482 -83.35149 646 ft 11 kts 25°
2026-05-08 00:45 42.21557 -83.35082 648 ft 17 kts 44°
2026-05-08 00:45 42.21636 -83.34982 646 ft 13 kts 43°
2026-05-08 00:45 42.21699 -83.34901 649 ft 11 kts 43°
2026-05-08 00:46 42.21753 -83.34833 647 ft 10 kts 43°
2026-05-08 00:46 42.21810 -83.34758 647 ft 11 kts 44°
2026-05-08 00:46 42.21835 -83.34656 647 ft 14 kts 89°
2026-05-08 00:46 42.21839 -83.34538 649 ft 12 kts 74°
2026-05-08 00:47 42.21894 -83.34473 647 ft 13 kts 28°
2026-05-08 00:47 42.22000 -83.34396 646 ft 18 kts 28°
2026-05-08 00:47 42.22102 -83.34320 646 ft 15 kts 28°
2026-05-08 00:47 42.22189 -83.34256 646 ft 14 kts 28°
2026-05-08 00:48 42.22280 -83.34189 647 ft 16 kts 28°
2026-05-08 00:48 42.22371 -83.34121 646 ft 15 kts 28°
2026-05-08 00:48 42.22462 -83.34055 646 ft 14 kts 28°
2026-05-08 00:48 42.22544 -83.33995 646 ft 15 kts 28°
2026-05-08 00:49 42.22643 -83.33921 647 ft 16 kts 28°
2026-05-08 00:49 42.22736 -83.33852 646 ft 14 kts 29°
2026-05-08 00:49 42.22819 -83.33790 646 ft 13 kts 29°
2026-05-08 00:49 42.22856 -83.33722 645 ft 8 kts 98°
2026-05-08 00:50 42.22833 -83.33654 646 ft 8 kts 128°
2026-05-08 00:50 42.22784 -83.33646 645 ft 9 kts 202°
2026-05-08 00:50 42.22766 -83.33660 645 ft 2 kts 210°
2026-05-08 00:50 42.22574 -83.33804 647 ft 70 kts 208°
2026-05-08 00:51 42.21940 -83.34266 647 ft 134 kts 208°
2026-05-08 00:51 42.21033 -83.34959 958 ft 156 kts 214°
2026-05-08 00:51 42.20092 -83.35676 1765 ft 155 kts 212°
2026-05-08 00:51 42.19142 -83.36357 2494 ft 158 kts 207°
2026-05-08 00:52 42.18084 -83.36801 2863 ft 178 kts 200°
2026-05-08 00:52 42.16810 -83.37281 3184 ft 203 kts 199°
2026-05-08 00:52 42.15360 -83.37825 3626 ft 227 kts 199°
2026-05-08 00:52 42.13758 -83.38426 4142 ft 250 kts 199°
2026-05-08 00:53 42.12054 -83.39064 4981 ft 259 kts 199°
2026-05-08 00:53 42.10302 -83.39723 5954 ft 263 kts 199°
2026-05-08 00:53 42.08522 -83.40389 6902 ft 266 kts 199°
2026-05-08 00:53 42.06723 -83.41055 7849 ft 269 kts 199°
2026-05-08 00:54 42.04921 -83.41671 8796 ft 272 kts 199°
2026-05-08 00:54 42.03070 -83.42273 9763 ft 275 kts 199°
2026-05-08 00:54 42.01180 -83.42884 10371 ft 289 kts 199°
2026-05-08 00:54 41.99145 -83.43552 10675 ft 313 kts 199°
2026-05-08 00:55 41.96971 -83.44263 11185 ft 326 kts 199°
2026-05-08 00:55 41.94815 -83.45211 11939 ft 327 kts 208°
2026-05-08 00:55 41.92705 -83.46401 12761 ft 330 kts 209°
2026-05-08 00:55 41.90578 -83.47606 13561 ft 334 kts 209°
2026-05-08 00:56 41.88431 -83.48831 14266 ft 338 kts 210°
2026-05-08 00:56 41.86251 -83.50080 14933 ft 342 kts 210°